Back to catalog

FENGYUN 1C DEB

AliveSSO
NORAD 30599·DEBRIS·🇨🇳 China

Launched May 10, 1999 from Taiyuan Satellite Launch Center

Loading…

Next Passes (next 24 hours)

TLE

FreshSource: Space-Track

Epoch: Sep 14, 2026, 11:38 UTC

1 30599U 99025AME 26257.48497442  .00000812  00000-0  25626-3 0  9990
2 30599  98.5981 266.9715 0298052 265.8088  90.8980 14.20731323 10806

Track FENGYUN 1C DEB in real time with AllMySat

Download on the App Store